When you browse on this site, cookies collect data to enhance your experience and personalize the content and advertising you see.
Visit our Privacy Policy to learn more. By continuing to use the site, you agree to this use of cookies and data.
  • Em Portugal
  • Lista de países
  • Para 7 dias
  • Temperatura da água
  • Mapa do tempo
  • Widgets de tempo
  • user-avatar
    Iniciar Sessão

    Previsão horária em Mazari Sharif

    Hoje, 19 Fevereiro, Quarta-feira

    Tempo Temperatura Precipitação Vento Pressão Humidade
    00:00 -5°C° 0.2 mm 3 m/s 662 mmHg 93%
    01:00 -4°C° 0.2 mm 2 m/s 662 mmHg 93%
    02:00 -4°C° 0.1 mm 2 m/s 662 mmHg 92%
    03:00 -4°C° 0.1 mm 2 m/s 662 mmHg 92%
    04:00 -3°C° 0 mm 1 m/s 662 mmHg 91%
    05:00 -3°C° 0 mm 1 m/s 662 mmHg 90%
    06:00 -3°C° 0 mm 1 m/s 662 mmHg 89%
    07:00 -3°C° 0 mm 1 m/s 662 mmHg 88%
    08:00 -2°C° 0 mm 1 m/s 662 mmHg 85%
    09:00 -3°C° 0 mm 2 m/s 662 mmHg 81%
    10:00 -2°C° 0 mm 3 m/s 663 mmHg 78%
    11:00 -2°C° 0 mm 2 m/s 662 mmHg 76%
    12:00 -1°C° 0 mm 2 m/s 661 mmHg 74%
    13:00 +1°C° 0 mm 2 m/s 661 mmHg 72%
    14:00 +1°C° 0 mm 2 m/s 660 mmHg 72%
    15:00 +1°C° 0 mm 2 m/s 660 mmHg 72%
    16:00 +1°C° 0 mm 2 m/s 659 mmHg 72%
    17:00 +1°C° 0 mm 2 m/s 659 mmHg 72%
    18:00 -1°C° 0 mm 2 m/s 659 mmHg 73%
    19:00 +1°C° 0 mm 1 m/s 659 mmHg 73%
    20:00 +1°C° 0 mm 1 m/s 659 mmHg 71%
    21:00 +1°C° 0 mm 1 m/s 658 mmHg 68%
    22:00 +1°C° 0 mm 1 m/s 658 mmHg 66%
    23:00 +1°C° 0 mm 1 m/s 657 mmHg 65%

    Amanhã, 20 Fevereiro, Quinta-feira

    Tempo Temperatura Precipitação Vento Pressão Humidade
    00:00 -2°C° 0 mm 2 m/s 657 mmHg 64%
    01:00 -2°C° 0 mm 2 m/s 656 mmHg 63%
    02:00 0°C° 0 mm 1 m/s 656 mmHg 62%
    03:00 +1°C° 0 mm 1 m/s 655 mmHg 60%
    04:00 +1°C° 0 mm 1 m/s 655 mmHg 59%
    05:00 +1°C° 0 mm 1 m/s 655 mmHg 56%
    06:00 +2°C° 0 mm 1 m/s 655 mmHg 53%
    07:00 +1°C° 0 mm 2 m/s 655 mmHg 50%
    08:00 +3°C° 0 mm 2 m/s 655 mmHg 47%
    09:00 +5°C° 0 mm 2 m/s 656 mmHg 44%
    10:00 +7°C° 0 mm 2 m/s 656 mmHg 41%
    11:00 +8°C° 0 mm 2 m/s 656 mmHg 39%
    12:00 +9°C° 0 mm 2 m/s 655 mmHg 38%
    13:00 +10°C° 0 mm 2 m/s 655 mmHg 36%
    14:00 +9°C° 0 mm 2 m/s 654 mmHg 38%
    15:00 +9°C° 0 mm 2 m/s 654 mmHg 41%
    16:00 +8°C° 0 mm 2 m/s 654 mmHg 43%
    17:00 +7°C° 0 mm 2 m/s 654 mmHg 44%
    18:00 +7°C° 0 mm 1 m/s 653 mmHg 45%
    19:00 +6°C° 0 mm 1 m/s 653 mmHg 45%
    20:00 +6°C° 0 mm 1 m/s 653 mmHg 44%
    21:00 +6°C° 0 mm 1 m/s 653 mmHg 42%
    22:00 +6°C° 0 mm 1 m/s 653 mmHg 40%
    23:00 +5°C° 0 mm 2 m/s 653 mmHg 38%

    Depois de amanhã, 21 Fevereiro, Sexta-feira

    Tempo Temperatura Precipitação Vento Pressão Humidade
    00:00 +5°C° 0 mm 2 m/s 653 mmHg 35%
    01:00 +5°C° 0 mm 2 m/s 652 mmHg 33%
    02:00 +5°C° 0 mm 2 m/s 652 mmHg 32%
    03:00 +5°C° 0 mm 2 m/s 652 mmHg 32%
    04:00 +5°C° 0 mm 2 m/s 651 mmHg 31%
    05:00 +5°C° 0 mm 2 m/s 652 mmHg 31%
    06:00 +5°C° 0 mm 2 m/s 652 mmHg 31%
    07:00 +5°C° 0 mm 2 m/s 652 mmHg 31%
    08:00 +8°C° 0 mm 2 m/s 653 mmHg 29%
    09:00 +10°C° 0 mm 2 m/s 653 mmHg 27%
    10:00 +14°C° 0 mm 2 m/s 654 mmHg 25%
    17:00 +12°C° 0 mm 2 m/s 654 mmHg 37%
    18:00 +10°C° 0 mm 2 m/s 654 mmHg 41%
    19:00 +10°C° 0 mm 1 m/s 655 mmHg 45%
    20:00 +10°C° 0 mm 1 m/s 655 mmHg 44%
    21:00 +10°C° 0 mm 1 m/s 656 mmHg 43%
    22:00 +9°C° 0 mm 2 m/s 656 mmHg 42%
    23:00 +9°C° 0 mm 2 m/s 656 mmHg 42%

    22 Fevereiro, Sábado

    Tempo Temperatura Precipitação Vento Pressão Humidade
    00:00 +8°C° 0 mm 2 m/s 656 mmHg 43%
    01:00 +8°C° 0 mm 2 m/s 656 mmHg 43%
    02:00 +8°C° 0 mm 2 m/s 657 mmHg 44%
    03:00 +8°C° 0 mm 1 m/s 657 mmHg 46%
    04:00 +8°C° 0 mm 1 m/s 657 mmHg 47%
    05:00 +8°C° 0 mm 1 m/s 657 mmHg 50%
    06:00 +7°C° 0 mm 1 m/s 657 mmHg 53%
    07:00 +7°C° 0 mm 1 m/s 658 mmHg 56%
    08:00 +8°C° 0 mm 1 m/s 658 mmHg 52%
    09:00 +10°C° 0 mm 1 m/s 659 mmHg 47%
    10:00 +12°C° 0 mm 1 m/s 659 mmHg 42%
    11:00 +12°C° 0 mm 1 m/s 659 mmHg 42%
    12:00 +13°C° 0 mm 1 m/s 659 mmHg 43%
    13:00 +14°C° 0 mm 2 m/s 659 mmHg 43%
    14:00 +14°C° 0 mm 2 m/s 659 mmHg 44%
    15:00 +14°C° 0 mm 2 m/s 659 mmHg 46%
    16:00 +14°C° 0 mm 1 m/s 659 mmHg 47%
    17:00 +12°C° 0 mm 1 m/s 659 mmHg 52%
    18:00 +11°C° 0 mm 1 m/s 659 mmHg 56%
    19:00 +9°C° 0 mm 0 m/s 658 mmHg 61%
    20:00 +9°C° 0 mm 0 m/s 658 mmHg 59%
    21:00 +9°C° 0 mm 1 m/s 658 mmHg 58%
    22:00 +9°C° 0 mm 1 m/s 658 mmHg 56%
    23:00 +9°C° 0 mm 1 m/s 658 mmHg 54%

    23 Fevereiro, Domingo

    Tempo Temperatura Precipitação Vento Pressão Humidade
    00:00 +9°C° 0 mm 1 m/s 657 mmHg 53%
    01:00 +9°C° 0 mm 1 m/s 657 mmHg 51%
    02:00 +8°C° 0 mm 1 m/s 657 mmHg 50%
    03:00 +7°C° 0 mm 2 m/s 656 mmHg 49%
    04:00 +7°C° 0 mm 2 m/s 656 mmHg 48%
    05:00 +7°C° 0 mm 2 m/s 656 mmHg 46%
    06:00 +7°C° 0 mm 2 m/s 656 mmHg 44%
    07:00 +7°C° 0 mm 2 m/s 657 mmHg 42%
    08:00 +11°C° 0 mm 1 m/s 657 mmHg 36%
    09:00 +13°C° 0 mm 1 m/s 657 mmHg 30%
    10:00 +15°C° 0 mm 1 m/s 658 mmHg 24%
    11:00 +16°C° 0 mm 1 m/s 658 mmHg 24%
    12:00 +18°C° 0 mm 1 m/s 657 mmHg 23%
    13:00 +17°C° 0 mm 2 m/s 657 mmHg 23%
    14:00 +17°C° 0 mm 2 m/s 657 mmHg 25%
    15:00 +17°C° 0 mm 2 m/s 657 mmHg 27%
    16:00 +18°C° 0 mm 1 m/s 656 mmHg 30%
    17:00 +15°C° 0 mm 1 m/s 656 mmHg 33%
    18:00 +14°C° 0 mm 1 m/s 656 mmHg 37%
    19:00 +12°C° 0 mm 1 m/s 656 mmHg 41%
    20:00 +12°C° 0 mm 1 m/s 656 mmHg 39%
    21:00 +12°C° 0 mm 1 m/s 656 mmHg 36%
    22:00 +10°C° 0 mm 2 m/s 656 mmHg 34%
    23:00 +10°C° 0 mm 2 m/s 656 mmHg 34%

    24 Fevereiro, Segunda-feira

    Tempo Temperatura Precipitação Vento Pressão Humidade
    00:00 +10°C° 0 mm 1 m/s 656 mmHg 35%
    01:00 +10°C° 0 mm 1 m/s 655 mmHg 36%
    02:00 +9°C° 0 mm 2 m/s 655 mmHg 35%
    03:00 +8°C° 0 mm 2 m/s 655 mmHg 34%
    04:00 +8°C° 0 mm 2 m/s 655 mmHg 33%
    05:00 +8°C° 0 mm 2 m/s 656 mmHg 33%
    06:00 +9°C° 0 mm 2 m/s 656 mmHg 33%
    07:00 +9°C° 0 mm 2 m/s 657 mmHg 33%
    08:00 +10°C° 0 mm 2 m/s 657 mmHg 32%
    09:00 +13°C° 0 mm 1 m/s 658 mmHg 31%
    10:00 +15°C° 0 mm 1 m/s 658 mmHg 30%
    11:00 +15°C° 0 mm 1 m/s 658 mmHg 30%
    12:00 +16°C° 0 mm 2 m/s 658 mmHg 30%
    13:00 +17°C° 0 mm 2 m/s 657 mmHg 29%
    14:00 +17°C° 0 mm 2 m/s 657 mmHg 30%
    15:00 +16°C° 0 mm 2 m/s 657 mmHg 31%
    16:00 +16°C° 0 mm 2 m/s 657 mmHg 32%
    17:00 +15°C° 0 mm 2 m/s 656 mmHg 37%
    18:00 +14°C° 0 mm 1 m/s 656 mmHg 42%
    19:00 +12°C° 0 mm 1 m/s 656 mmHg 47%
    20:00 +12°C° 0 mm 1 m/s 656 mmHg 47%
    21:00 +11°C° 0 mm 1 m/s 656 mmHg 47%
    22:00 +11°C° 0 mm 1 m/s 656 mmHg 46%
    23:00 +11°C° 0 mm 1 m/s 656 mmHg 45%
    Mostrar mais